GW2474 Weather Reports


Display with metric or nautical units.
time (UTC)temp
F
wind
direction
speed
MPH
gust
MPH
rain 1hr
in
rain 24hr
in
rain mn
in
humidity
%
barometer
mb
20260508204552 63 257 4.0 9.0 0.00 0.00 0.00 49 1007.9
20260508203052 62 272 3.0 15.0 0.00 0.00 0.00 48 1007.9
20260508201554 63 138 4.0 9.0 0.00 0.00 0.00 47 1008.0
20260508200058 63 277 6.0 13.0 0.00 0.00 0.00 47 1008.5
20260508194550 63 259 5.0 13.0 0.00 0.00 0.00 47 1008.5
20260508193059 63 280 5.0 12.0 0.00 0.00 0.00 47 1009.0
20260508191555 61 126 3.0 12.0 0.00 0.00 0.00 48 1009.2
20260508190100 62 214 3.0 11.0 0.00 0.00 0.00 49 1009.4
20260508184608 61 280 4.0 13.0 0.00 0.00 0.00 53 1009.6
20260508183057 62 283 4.0 11.0 0.00 0.00 0.00 54 1009.4
20260508181605 61 304 4.0 9.0 0.00 0.00 0.00 54 1009.9
20260508180057 60 161 4.0 8.0 0.00 0.00 0.00 57 1009.9
20260508174551 60 283 2.0 12.0 0.00 0.00 0.00 59 1010.1
20260508173056 60 156 3.0 9.0 0.00 0.00 0.00 61 1010.1
20260508171551 59 0 2.0 9.0 0.00 0.00 0.00 61 1010.4
20260508170054 59 326 3.0 9.0 0.00 0.00 0.00 55 1010.6
20260508164601 58 156 1.0 9.0 0.00 0.00 0.00 59 1011.0
20260508163100 58 0 3.0 9.0 0.00 0.00 0.00 57 1011.1
20260508161553 58 260 2.0 6.0 0.00 0.00 0.00 60 1011.2
20260508160051 57 98 3.0 6.0 0.00 0.00 0.00 63 1011.4
20260508154556 56 312 4.0 12.0 0.00 0.00 0.00 61 1011.5
20260508153055 56 79 3.0 8.0 0.00 0.00 0.00 68 1011.6
20260508151601 54 27 2.0 5.0 0.00 0.00 0.00 68 1011.7
20260508144620 53 5 0.0 4.0 0.00 0.00 0.00 69 1011.8
20260508143109 53 5 2.0 6.0 0.00 0.00 0.00 71 1011.7
20260508141605 53 338 2.0 5.0 0.00 0.00 0.00 74 1011.8
20260508140057 52 345 3.0 6.0 0.00 0.00 0.00 76 1011.9
20260508134600 51 355 3.0 6.0 0.00 0.00 0.00 79 1011.8
20260508133116 50 346 2.0 7.0 0.00 0.00 0.00 82 1011.9
20260508131554 49 335 3.0 6.0 0.00 0.00 0.00 84 1011.8
20260508130050 48 272 1.0 5.0 0.00 0.00 0.00 84 1011.8
20260508124558 47 290 2.0 8.0 0.00 0.00 0.00 84 1012.0
20260508123102 46 244 3.0 7.0 0.00 0.00 0.00 85 1011.9
20260508121551 45 296 2.0 6.0 0.00 0.00 0.00 85 1011.8
20260508120054 44 280 1.0 4.0 0.00 0.00 0.00 85 1011.7
20260508114552 43 267 1.0 3.0 0.00 0.00 0.00 85 1011.7
20260508113105 42 0 1.0 2.0 0.00 0.00 0.00 85 1011.5
20260508111553 42 0 0.0 2.0 0.00 0.00 0.00 85 1011.5
20260508110056 42 0 0.0 1.0 0.00 0.00 0.00 85 1011.3
20260508104554 42 0 0.0 0.0 0.00 0.00 0.00 85 1011.3
20260508103058 42 0 0.0 2.0 0.00 0.00 0.00 85 1011.2
20260508101600 42 0 0.0 0.0 0.00 0.00 0.00 85 1011.1
20260508100056 42 0 0.0 0.0 0.00 0.00 0.00 85 1011.2
20260508094551 42 0 0.0 2.0 0.00 0.00 0.00 85 1011.3
20260508093055 42 267 0.0 2.0 0.00 0.00 0.00 85 1011.3
20260508091609 42 0 0.0 2.0 0.00 0.00 0.00 85 1011.2
20260508090109 41 267 0.0 2.0 0.00 0.00 0.00 85 1011.3
20260508084557 41 0 0.0 0.0 0.00 0.00 0.00 84 1011.2
20260508083050 42 0 0.0 0.0 0.00 0.00 0.00 84 1011.2
20260508081556 43 0 0.0 1.0 0.00 0.00 0.00 84 1011.3
20260508080051 43 0 0.0 1.0 0.00 0.00 0.00 84 1011.4
20260508074551 44 0 0.0 3.0 0.00 0.00 0.00 83 1011.3
20260508073104 44 267 0.0 2.0 0.00 0.00 0.00 83 1011.4
20260508071603 44 0 0.0 2.0 0.00 0.00 0.00 83 1011.5
20260508070053 45 0 2.0 4.0 0.00 0.00 0.00 83 1011.7
20260508064555 44 0 1.0 3.0 0.00 0.00 0.00 83 1011.6
20260508063054 44 0 0.0 4.0 0.00 0.00 0.00 82 1011.5
20260508061555 44 270 1.0 4.0 0.00 0.00 0.00 81 1011.6
20260508060054 44 267 0.0 3.0 0.00 0.00 0.00 80 1011.6
20260508054553 45 263 0.0 2.0 0.00 0.00 0.00 79 1011.8
20260508053113 45 276 1.0 4.0 0.00 0.00 0.00 79 1011.8
20260508051550 45 0 0.0 2.0 0.00 0.00 0.00 78 1012.1
20260508050057 45 231 0.0 2.0 0.00 0.00 0.00 77 1011.8
20260508044558 46 0 0.0 2.0 0.00 0.00 0.00 76 1011.8
20260508043103 46 0 0.0 2.0 0.00 0.00 0.00 75 1011.7
20260508041616 46 0 0.0 2.0 0.00 0.00 0.00 74 1011.7
20260508040110 47 0 0.0 2.0 0.00 0.00 0.00 73 1011.7
20260508034600 47 0 0.0 2.0 0.00 0.00 0.00 72 1011.8
20260508033052 48 0 0.0 2.0 0.00 0.00 0.00 70 1011.9
20260508031600 48 206 0.0 3.0 0.00 0.00 0.00 69 1012.0
20260508030053 49 268 0.0 3.0 0.00 0.00 0.00 68 1012.2
20260508024603 49 246 1.0 4.0 0.00 0.00 0.00 67 1012.3
20260508023052 50 229 1.0 5.0 0.00 0.00 0.00 66 1012.1
20260508021558 50 275 2.0 8.0 0.00 0.00 0.00 65 1012.1
20260508020100 50 137 3.0 12.0 0.00 0.00 0.00 65 1012.1
20260508014551 50 263 1.0 11.0 0.00 0.00 0.00 63 1012.1
20260508013055 51 229 4.0 9.0 0.00 0.00 0.00 62 1012.1
20260508011556 51 285 2.0 9.0 0.00 0.00 0.00 60 1011.8
20260508010052 52 175 3.0 13.0 0.00 0.00 0.00 57 1011.8
20260508004558 53 237 4.0 13.0 0.00 0.00 0.00 53 1011.5
20260508003057 54 265 3.0 9.0 0.00 0.00 0.00 49 1011.4
20260508001552 54 211 4.0 9.0 0.00 0.00 0.00 47 1011.2
20260508000059 54 0 4.0 9.0 0.00 0.00 0.00 46 1011.4
20260507234554 55 298 7.0 11.0 0.00 0.00 0.00 44 1011.4
20260507233102 54 252 3.0 10.0 0.00 0.00 0.00 43 1011.1
20260507231554 55 279 5.0 12.0 0.00 0.00 0.00 42 1011.2
20260507230050 56 308 3.0 11.0 0.00 0.00 0.00 42 1011.3
20260507224557 55 306 7.0 14.0 0.00 0.00 0.00 41 1011.4
20260507223056 56 289 5.0 12.0 0.00 0.00 0.00 42 1011.5
20260507221550 56 283 8.0 15.0 0.00 0.00 0.00 40 1011.4
20260507220048 56 317 5.0 12.0 0.00 0.00 0.00 42 1011.5
20260507214606 55 265 8.0 17.0 0.00 0.00 0.00 40 1011.6
20260507213100 56 288 7.0 19.0 0.00 0.00 0.00 41 1011.4
20260507211552 55 292 7.0 15.0 0.00 0.00 0.00 41 1011.7
20260507210051 55 294 5.0 15.0 0.00 0.00 0.00 41 1011.6